FW9167 Weather Reports


Display with metric or nautical units.
time (UTC)temp
F
wind
direction
speed
MPH
gust
MPH
rain 1hr
in
rain 24hr
in
rain mn
in
humidity
%
barometer
mb
20260509141602 48 219 0.0 1.0 0.00 0.00 0.00 67 1022.5
20260509134601 46 282 0.0 0.0 0.00 0.00 0.00 69 1022.3
20260509133101 43 283 0.0 0.0 0.00 0.00 0.00 73 1022.1
20260509131601 40 282 0.0 2.0 0.00 0.00 0.00 78 1021.8
20260509124601 42 336 0.0 1.0 0.00 0.00 0.00 72 1021.5
20260509123102 41 330 0.0 3.0 0.00 0.00 0.00 73 1021.4
20260509121602 40 341 0.0 2.0 0.00 0.00 0.00 73 1021.4
20260509114601 42 338 1.0 3.0 0.00 0.00 0.00 71 1021.2
20260509113102 42 336 2.0 3.0 0.00 0.00 0.00 70 1021.3
20260509111602 42 331 0.0 2.0 0.00 0.00 0.00 70 1021.3
20260509104601 45 315 0.0 3.0 0.00 0.00 0.00 64 1021.3
20260509103101 44 353 1.0 2.0 0.00 0.00 0.00 65 1021.1
20260509101601 44 281 0.0 1.0 0.00 0.00 0.00 65 1021.0
20260509100105 46 336 0.0 4.0 0.00 0.00 0.00 62 1020.8
20260509094602 45 333 0.0 5.0 0.00 0.00 0.00 62 1020.7
20260509093102 45 345 1.0 1.0 0.00 0.00 0.00 61 1020.5
20260509091601 45 330 0.0 5.0 0.00 0.00 0.00 62 1020.4
20260509090101 46 349 0.0 3.0 0.00 0.00 0.00 59 1020.4
20260509084601 47 339 0.0 5.0 0.00 0.00 0.00 57 1020.2
20260509083104 47 350 1.0 4.0 0.00 0.00 0.00 58 1020.2
20260509074602 47 333 2.0 6.0 0.00 0.00 0.00 59 1019.8
20260509073102 46 341 1.0 4.0 0.00 0.00 0.00 61 1019.6
20260509071605 48 347 0.0 3.0 0.00 0.00 0.00 57 1019.5
20260509064602 48 336 0.0 2.0 0.00 0.00 0.00 57 1019.2
20260509063105 50 36 0.0 5.0 0.00 0.00 0.00 53 1019.1
20260509053101 50 8 0.0 5.0 0.00 0.00 0.00 53 1018.8
20260509051601 52 330 1.0 6.0 0.00 0.00 0.00 47 1018.5
20260509050101 52 339 0.0 3.0 0.00 0.00 0.00 46 1018.3
20260509044604 54 281 0.0 3.0 0.00 0.00 0.00 42 1018.2
20260509043102 57 302 0.0 5.0 0.00 0.00 0.00 37 1018.1
20260509041602 58 338 1.0 8.0 0.00 0.00 0.00 37 1018.0
20260509033101 57 335 1.0 7.0 0.00 0.00 0.00 43 1017.2
20260509031601 58 5 0.0 3.0 0.00 0.00 0.00 41 1017.0
20260509030105 61 313 0.0 4.0 0.00 0.00 0.00 42 1016.6
20260509024602 65 262 2.0 4.0 0.00 0.00 0.00 36 1016.4
20260509023102 67 283 1.0 9.0 0.00 0.00 0.00 30 1016.1
20260509021602 69 252 1.0 3.0 0.00 0.00 0.00 33 1016.0
20260509020105 71 291 3.0 9.0 0.00 0.00 0.00 28 1015.8
20260509014605 72 291 6.0 6.0 0.00 0.00 0.00 27 1015.7
20260509013109 71 266 1.0 7.0 0.00 0.00 0.00 28 1015.6
20260509011604 72 283 2.0 8.0 0.00 0.00 0.00 25 1015.6
20260509004601 73 253 5.0 8.0 0.00 0.00 0.00 23 1015.8
20260509003102 73 302 5.0 11.0 0.00 0.00 0.00 21 1015.8
20260508234601 74 261 10.0 12.0 0.00 0.00 0.00 24 1015.7
20260508233102 73 261 7.0 12.0 0.00 0.00 0.00 24 1015.7
20260508231602 73 295 4.0 9.0 0.00 0.00 0.00 24 1015.8
20260508224602 72 280 5.0 10.0 0.00 0.00 0.00 23 1015.7
20260508223102 72 302 4.0 14.0 0.00 0.00 0.00 28 1015.7
20260508221602 71 242 7.0 13.0 0.00 0.00 0.00 28 1015.6
20260508220104 72 301 1.0 10.0 0.00 0.00 0.00 26 1015.7
20260508214602 71 259 2.0 11.0 0.00 0.00 0.00 26 1015.8
20260508213102 72 266 5.0 17.0 0.00 0.00 0.00 26 1016.0
20260508211602 72 252 5.0 14.0 0.00 0.00 0.00 27 1016.1
20260508204603 72 248 9.0 18.0 0.00 0.00 0.00 27 1016.1
20260508203102 71 224 6.0 14.0 0.00 0.00 0.00 27 1016.5
20260508201605 70 236 9.0 15.0 0.00 0.00 0.00 29 1016.3
20260508194601 72 199 1.0 3.0 0.00 0.00 0.00 37 1016.6
20260508193102 69 37 2.0 4.0 0.00 0.00 0.00 36 1016.7
20260508191605 70 122 0.0 2.0 0.00 0.00 0.00 37 1016.8
20260508184602 68 120 0.0 7.0 0.00 0.00 0.00 35 1017.0
20260508183101 69 166 1.0 2.0 0.00 0.00 0.00 39 1017.2
20260508181602 67 135 0.0 3.0 0.00 0.00 0.00 41 1017.3
20260508180105 65 135 0.0 4.0 0.00 0.00 0.00 39 1017.4
20260508174602 65 335 0.0 4.0 0.00 0.00 0.00 38 1017.3
20260508173102 64 122 2.0 3.0 0.00 0.00 0.00 41 1017.4
20260508171601 63 143 0.0 5.0 0.00 0.00 0.00 42 1017.6
20260508164602 61 111 0.0 3.0 0.00 0.00 0.00 45 1017.7
20260508163102 61 39 1.0 2.0 0.00 0.00 0.00 46 1017.7
20260508161602 59 142 0.0 2.0 0.00 0.00 0.00 47 1017.7
20260508154601 57 169 0.0 3.0 0.00 0.00 0.00 54 1017.6
20260508153102 58 210 0.0 1.0 0.00 0.00 0.00 57 1017.6
20260508151602 57 163 1.0 2.0 0.00 0.00 0.00 54 1017.7
20260508144601 57 141 0.0 2.0 0.00 0.00 0.00 56 1017.6
20260508143101 56 54 0.0 1.0 0.00 0.00 0.00 56 1017.5